Regional Weather Roundup
Issued by NWS Charleston, SC

Current Version | Previous Version | Text Only | Print | Product List | Glossary Off
Versions: 1 2 3 4 5 6 7 8 9 10 11 12 13 14 15 16 17 18 19 20 21 22 23 24 25 26 27 28 29 30 31 32 33 34 35 36 37 38 39 40 41 42 43 44 45 46 47 48 49 50
000 ASUS42 KCHS 161412 RWRCHS Regional Weather Roundup National Weather Service Charleston SC 1000 AM EDT TUE JUL 16 2019 NOTE: "fair" indicates few or no clouds below 12,000 feet with no significant weather and/or obstructions to visibility. Not all stations are quality controlled. Use data with caution, especially dewpoint observations. SCZ027-030-031-034>040-042>050-161500- ...Southeast South Carolina... CITY SKY/WX TMP DP RH WIND PRES REMARKS N Charleston FAIR 89 75 63 CALM 30.12S HX 99 Waterfront Prk N/A 87 80 79 VRB3 29.96S HX 103 Mount Pleasant FAIR 90 81 74 CALM 30.12S HX 108 Johns Island FAIR 93 81 66 CALM 30.12S HX 113 Pinopolis N/A 84 79 84 CALM 30.06S HX 96 Moncks Corner FAIR 86 77 74 MISG 30.12F HX 97 Summerville FAIR 86 77 74 CALM 30.13F HX 97 Beaufort MCAS FAIR 90 76 63 N5 30.13R HX 101 Beaufort Arpt FAIR 88 77 70 NE3 30.12S HX 100 Hilton Head Is SUNNY 88 79 74 NE6 30.13S HX 102 Walterboro FAIR 88 73 62 CALM 30.14S HX 96 Allendale FAIR 88 73 62 CALM 30.13S HX 96 ...Southern Midlands and Pee Dee... CITY SKY/WX TMP DP RH WIND PRES REMARKS Georgetown FAIR 86 77 74 CALM 30.13S HX 97 Kingstree FAIR 86 77 74 CALM 30.12S HX 97 Orangeburg FAIR 88 71 57 NW3 30.13F HX 94 Barnwell FAIR 88 73 62 CALM 30.14S HX 96 Aiken FAIR 86 73 66 CALM 30.18S HX 93 Manning FAIR 86 72 62 NW3 30.13S HX 92 Columbia FAIR 87 73 62 CALM 30.13S HX 94 Sumter FAIR 87 72 60 CALM 30.13S HX 93 Florence FAIR 91 76 61 CALM 30.12S HX 103 Myrtle Beach FAIR 88 75 65 SW6 30.12S HX 97 N Myrtle Beach FAIR 86 77 74 S3 30.11S HX 97 $$ GAZ063-065-086>088-099>101-113>116-118-119-134>141-150-161500- ...Southeast Georgia... CITY SKY/WX TMP DP RH WIND PRES REMARKS Savannah Arpt PTSUNNY 87 75 67 N5 30.13R HX 96 Hunter AAF FAIR 87 75 65 N5 30.10S HX 96 Fort Stewart MOSUNNY 90 71 54 NW6 30.11S HX 96 Statesboro FAIR 87 72 60 CALM 30.14S HX 93 Sylvania FAIR 89 74 62 CALM 30.15S HX 98 Claxton FAIR 89 74 62 CALM 30.14R HX 97 Millen FAIR 89 70 54 N6 30.14S HX 93 ...CSRA, Central and far Southeast Georgia... CITY SKY/WX TMP DP RH WIND PRES REMARKS Thomson FAIR 85 73 67 N3 30.17S HX 91 Augusta-Bush FAIR 89 73 59 CALM 30.13S HX 97 Augusta-Daniel FAIR 90 70 51 CALM 30.16R HX 95 Swainsboro FAIR 88 72 58 N5 30.16S HX 94 Vidalia FAIR 90 66 45 NW3 30.15S HX 92 Eastman FAIR 85 72 65 CALM 30.19R HX 91 Hazlehurst FAIR 88 71 58 NW3 30.15R HX 94 Alma FAIR 90 72 55 NW7 30.14S HX 97 Waycross FAIR 87 69 54 N3 30.15S HX 91 Jesup FAIR 91 70 49 N6 30.13S HX 97 Baxley FAIR 86 70 58 NW7 30.14S HX 90 Brunswick FAIR 88 73 61 N7 30.12S HX 96 Saint Simons FAIR 90 72 55 NW8 30.12R HX 97 $$ SCZ027-028-034-036>038-045-046-048>050-GAZ119-141-161500- ...Lake and Supplemental Coastal Observations... STATION/POSITION TIME TEMP WIND PRES WAVE SWELL AIR SEA DIR/SP/G HT/PER HT/PER/DIR (UTC) (F) (DEG/KT/KT) (MB) (FT/S) (FT/S/D) Winyah Bay 1245 85 260/ 3 1020.0 Lake Murray 1320 84 290/ 1/ 3 1019.6 ACE Basin NERRS 1245 87 CALM 1020.0 Fort Pulaski 1324 85 86 330/ 5/ 7 1020.4S Sapelo Island 1300 87 350/ 4 1020.0 $$ ANZ835-935-AMZ111-154-330-350-352-354-370-450-454-472-161500- ...C-MAN and Buoy Observations... STATION/POSITION TIME TEMP WIND PRES WAVE SWELL AIR SEA DIR/SP/G HT/PER HT/PER/DIR (UTC) (F) (DEG/KT/KT) (MB) (FT/S) (FT/S/D) Buoy 41004 1350 88 85 CALM 1020.0R 1/ 9 2/120/ 9 Buoy 41008 1350 84 84 350/ 6/ 8 1019.7R 1/10 2/120/10 Folly Beach CMAN 1300 87 70/ 1/ 2 1020.5R Capers Nearshore 1308 86 85 270/ 2/ 2 1020.6R Fripp Nearshore 1308 86 86 30/ 4/ 6 1019.6R STATION/POSITION TIME TEMP WIND PRES WAVE SWELL AIR SEA DIR/SP/G HT/PER HT/PER/DIR (UTC) (F) (DEG/KT/KT) (MB) (FT/S) (FT/S/D) 5E St. Marys GA 1400 81 N/A 1/11 Frying Pan Buoy 1350 84 84 220/ 4/ 4 1019.7F 2/ 4 2/200/ 4 Buoy 41025 1350 83 84 230/ 4/ 4 1019.8R 1/ 8 2/120/ 8 Cape Lookout NC 1300 83 150/ 5/ 5 1019.9R Buoy 41002 1350 83 83 240/ 8/ 10 1021.0S 2/ 5 2/240/ 5 Buoy 41010 1350 85 85 170/ 4/ 4 N/A 2/ 7 2/100/ 7 St Augustine FL 1400 86 77 260/ 5/ 7 1021.0R $$

USA.gov is the U.S. government's official web portal to all federal, state and local government web resources and services.